When you browse on this site, cookies collect data to enhance your experience and personalize the content and advertising you see.
Visit our Privacy Policy to learn more. By continuing to use the site, you agree to this use of cookies and data.
  • în România
  • Lista ţărilor
  • Pe 7 zile
  • Temperatura apei
  • Hartă satelitară
  • Meteo pe hartă
  • Widget-uri
  • user-avatar
    Intrare

    Meteo pe oră la Maubeuge

    Astăzi, 19 Iunie, Miercuri

    Timp Temperatura Precipitaţii Vânt Presiune Umiditate
    00:00 +18°C° 0 mm 3 m/s 744 mmHg 84%
    01:00 +18°C° 0 mm 3 m/s 743 mmHg 84%
    02:00 +18°C° 0 mm 3 m/s 743 mmHg 84%
    03:00 +18°C° 0 mm 3 m/s 742 mmHg 84%
    04:00 +17°C° 0 mm 5 m/s 742 mmHg 84%
    05:00 +19°C° 0 mm 6 m/s 742 mmHg 83%
    06:00 +18°C° 0 mm 7 m/s 742 mmHg 82%
    07:00 +20°C° 0 mm 6 m/s 743 mmHg 79%
    08:00 +21°C° 0 mm 4 m/s 743 mmHg 75%
    09:00 +22°C° 0 mm 3 m/s 743 mmHg 71%
    10:00 +23°C° 0 mm 4 m/s 743 mmHg 68%
    11:00 +25°C° 0 mm 5 m/s 743 mmHg 66%
    12:00 +26°C° 0 mm 6 m/s 743 mmHg 63%
    13:00 +26°C° 0.4 mm 6 m/s 743 mmHg 65%
    14:00 +24°C° 0.4 mm 6 m/s 743 mmHg 68%
    15:00 +24°C° 0.4 mm 6 m/s 743 mmHg 70%
    16:00 +22°C° 0.5 mm 5 m/s 743 mmHg 76%
    17:00 +21°C° 0.5 mm 5 m/s 743 mmHg 82%
    18:00 +20°C° 0.5 mm 4 m/s 743 mmHg 88%
    19:00 +19°C° 0.2 mm 4 m/s 744 mmHg 90%
    20:00 +17°C° 0.2 mm 3 m/s 744 mmHg 93%
    21:00 +16°C° 0.2 mm 2 m/s 744 mmHg 95%
    22:00 +15°C° 0 mm 2 m/s 744 mmHg 96%
    23:00 +14°C° 0 mm 2 m/s 745 mmHg 96%

    Mâine, 20 Iunie, Joi

    Timp Temperatura Precipitaţii Vânt Presiune Umiditate
    00:00 +14°C° 0 mm 2 m/s 745 mmHg 96%
    01:00 +13°C° 0 mm 2 m/s 745 mmHg 96%
    02:00 +13°C° 0 mm 2 m/s 745 mmHg 96%
    03:00 +13°C° 0 mm 2 m/s 745 mmHg 96%
    04:00 +12°C° 0 mm 3 m/s 745 mmHg 95%
    05:00 +13°C° 0 mm 3 m/s 745 mmHg 94%
    06:00 +13°C° 0 mm 3 m/s 745 mmHg 93%
    07:00 +14°C° 0.1 mm 3 m/s 746 mmHg 91%
    08:00 +14°C° 0.1 mm 3 m/s 746 mmHg 89%
    09:00 +14°C° 0.1 mm 3 m/s 747 mmHg 87%
    10:00 +16°C° 0.2 mm 3 m/s 747 mmHg 83%
    11:00 +17°C° 0.2 mm 3 m/s 747 mmHg 79%
    12:00 +18°C° 0.2 mm 4 m/s 747 mmHg 75%
    13:00 +18°C° 0 mm 4 m/s 747 mmHg 70%
    14:00 +19°C° 0 mm 4 m/s 747 mmHg 65%
    15:00 +20°C° 0 mm 5 m/s 747 mmHg 60%
    16:00 +19°C° 0 mm 4 m/s 748 mmHg 65%
    17:00 +18°C° 0 mm 4 m/s 748 mmHg 69%
    18:00 +18°C° 0 mm 3 m/s 748 mmHg 74%
    19:00 +16°C° 0 mm 3 m/s 749 mmHg 79%
    20:00 +13°C° 0 mm 3 m/s 749 mmHg 85%
    21:00 +12°C° 0 mm 2 m/s 749 mmHg 90%
    22:00 +10°C° 0 mm 2 m/s 749 mmHg 91%
    23:00 +9°C° 0 mm 2 m/s 750 mmHg 92%

    Poimâine, 21 Iunie, Vineri

    Timp Temperatura Precipitaţii Vânt Presiune Umiditate
    00:00 +9°C° 0 mm 2 m/s 750 mmHg 93%
    01:00 +9°C° 0 mm 2 m/s 750 mmHg 93%
    02:00 +8°C° 0 mm 2 m/s 750 mmHg 94%
    03:00 +8°C° 0 mm 2 m/s 750 mmHg 94%
    04:00 +9°C° 0 mm 2 m/s 750 mmHg 91%
    05:00 +10°C° 0 mm 2 m/s 751 mmHg 89%
    06:00 +12°C° 0 mm 2 m/s 751 mmHg 86%
    07:00 +14°C° 0 mm 2 m/s 751 mmHg 80%
    08:00 +15°C° 0 mm 2 m/s 751 mmHg 74%
    09:00 +17°C° 0 mm 3 m/s 751 mmHg 67%
    10:00 +18°C° 0 mm 3 m/s 751 mmHg 64%
    11:00 +19°C° 0 mm 3 m/s 751 mmHg 61%
    12:00 +20°C° 0 mm 3 m/s 751 mmHg 58%
    13:00 +20°C° 0.1 mm 3 m/s 751 mmHg 60%
    14:00 +19°C° 0.1 mm 3 m/s 751 mmHg 62%
    15:00 +19°C° 0.1 mm 3 m/s 751 mmHg 64%
    16:00 +19°C° 0.1 mm 3 m/s 751 mmHg 69%
    17:00 +18°C° 0.1 mm 3 m/s 751 mmHg 73%
    18:00 +17°C° 0.1 mm 3 m/s 751 mmHg 77%
    19:00 +14°C° 0 mm 3 m/s 752 mmHg 79%
    20:00 +13°C° 0 mm 3 m/s 752 mmHg 81%
    21:00 +12°C° 0 mm 2 m/s 752 mmHg 83%
    22:00 +10°C° 0 mm 2 m/s 752 mmHg 82%
    23:00 +10°C° 0 mm 2 m/s 752 mmHg 81%

    22 Iunie, Sâmbătă

    Timp Temperatura Precipitaţii Vânt Presiune Umiditate
    00:00 +9°C° 0 mm 2 m/s 752 mmHg 80%
    01:00 +8°C° 0 mm 2 m/s 752 mmHg 84%
    02:00 +8°C° 0 mm 2 m/s 752 mmHg 86%
    03:00 +7°C° 0 mm 2 m/s 752 mmHg 88%
    04:00 +8°C° 0 mm 2 m/s 752 mmHg 86%
    05:00 +10°C° 0 mm 2 m/s 752 mmHg 84%
    06:00 +12°C° 0 mm 2 m/s 752 mmHg 82%
    07:00 +13°C° 0 mm 2 m/s 753 mmHg 77%
    08:00 +14°C° 0 mm 3 m/s 753 mmHg 73%
    09:00 +17°C° 0 mm 3 m/s 753 mmHg 68%
    10:00 +18°C° 0 mm 3 m/s 753 mmHg 66%
    11:00 +18°C° 0 mm 3 m/s 753 mmHg 64%
    12:00 +19°C° 0 mm 3 m/s 752 mmHg 61%
    13:00 +20°C° 0 mm 3 m/s 752 mmHg 61%
    14:00 +20°C° 0 mm 3 m/s 752 mmHg 61%
    15:00 +20°C° 0 mm 3 m/s 752 mmHg 61%
    16:00 +20°C° 0 mm 3 m/s 752 mmHg 65%
    17:00 +19°C° 0 mm 2 m/s 752 mmHg 70%
    18:00 +19°C° 0 mm 2 m/s 752 mmHg 74%
    19:00 +17°C° 0 mm 2 m/s 752 mmHg 77%
    20:00 +15°C° 0 mm 2 m/s 752 mmHg 79%
    21:00 +13°C° 0 mm 2 m/s 752 mmHg 82%
    22:00 +13°C° 0 mm 2 m/s 752 mmHg 84%
    23:00 +12°C° 0 mm 2 m/s 752 mmHg 85%

    23 Iunie, Duminică

    Timp Temperatura Precipitaţii Vânt Presiune Umiditate
    00:00 +12°C° 0 mm 2 m/s 752 mmHg 87%
    01:00 +10°C° 0 mm 2 m/s 752 mmHg 89%
    02:00 +10°C° 0 mm 2 m/s 752 mmHg 90%
    03:00 +10°C° 0 mm 2 m/s 752 mmHg 91%
    04:00 +12°C° 0 mm 2 m/s 752 mmHg 89%
    05:00 +13°C° 0 mm 2 m/s 752 mmHg 88%
    06:00 +15°C° 0 mm 2 m/s 752 mmHg 86%
    07:00 +16°C° 0 mm 3 m/s 752 mmHg 81%
    08:00 +18°C° 0 mm 3 m/s 752 mmHg 75%
    09:00 +20°C° 0 mm 4 m/s 752 mmHg 70%
    10:00 +20°C° 0 mm 4 m/s 752 mmHg 67%
    11:00 +21°C° 0 mm 4 m/s 752 mmHg 65%
    12:00 +22°C° 0 mm 4 m/s 752 mmHg 63%
    13:00 +22°C° 0 mm 4 m/s 752 mmHg 64%
    14:00 +22°C° 0 mm 4 m/s 751 mmHg 64%
    15:00 +23°C° 0 mm 4 m/s 751 mmHg 65%
    16:00 +22°C° 0 mm 4 m/s 751 mmHg 69%
    17:00 +22°C° 0 mm 4 m/s 751 mmHg 74%
    18:00 +21°C° 0 mm 4 m/s 751 mmHg 79%
    19:00 +20°C° 0 mm 4 m/s 751 mmHg 82%
    20:00 +19°C° 0 mm 4 m/s 751 mmHg 85%
    21:00 +17°C° 0 mm 4 m/s 751 mmHg 88%
    22:00 +17°C° 0 mm 4 m/s 751 mmHg 89%
    23:00 +17°C° 0 mm 4 m/s 751 mmHg 89%

    24 Iunie, Luni

    Timp Temperatura Precipitaţii Vânt Presiune Umiditate
    00:00 +15°C° 0 mm 4 m/s 751 mmHg 90%
    01:00 +15°C° 0 mm 4 m/s 750 mmHg 91%
    02:00 +16°C° 0 mm 3 m/s 750 mmHg 91%
    03:00 +16°C° 0 mm 3 m/s 750 mmHg 92%
    04:00 +16°C° 0 mm 3 m/s 750 mmHg 89%
    05:00 +17°C° 0 mm 4 m/s 750 mmHg 86%
    06:00 +18°C° 0 mm 4 m/s 750 mmHg 83%
    07:00 +20°C° 0 mm 4 m/s 750 mmHg 80%
    08:00 +22°C° 0 mm 4 m/s 750 mmHg 76%
    09:00 +25°C° 0 mm 4 m/s 750 mmHg 73%
    10:00 +26°C° 0 mm 5 m/s 750 mmHg 69%
    11:00 +28°C° 0 mm 5 m/s 750 mmHg 65%
    12:00 +29°C° 0 mm 5 m/s 750 mmHg 62%
    13:00 +30°C° 0 mm 5 m/s 750 mmHg 62%
    14:00 +30°C° 0 mm 5 m/s 749 mmHg 63%
    15:00 +30°C° 0 mm 4 m/s 749 mmHg 64%
    16:00 +29°C° 0 mm 4 m/s 749 mmHg 68%
    17:00 +28°C° 0 mm 4 m/s 749 mmHg 72%
    18:00 +28°C° 0 mm 3 m/s 749 mmHg 75%
    19:00 +26°C° 0 mm 3 m/s 749 mmHg 78%
    20:00 +24°C° 0 mm 3 m/s 750 mmHg 80%
    21:00 +22°C° 0 mm 3 m/s 750 mmHg 83%
    22:00 +22°C° 0 mm 4 m/s 750 mmHg 80%
    23:00 +22°C° 0 mm 4 m/s 750 mmHg 78%
    Arată mai mult